EW4504 Weather Reports


time (UTC)temp
C
wind
direction
speed
KPH
gust
KPH
rain 1hr
cm
rain 24hr
cm
rain mn
cm
humidity
%
barometer
mb
20260509184030 20 204 4.8 11.3 0.00 0.00 0.00 73 1012.2
20260509183530 21 229 1.6 11.3 0.00 0.00 0.00 73 1012.1
20260509183042 21 232 1.6 8.0 0.00 0.00 0.00 72 1012.2
20260509182530 21 0 1.6 9.7 0.00 0.00 0.00 72 1012.2
20260509182031 21 255 4.8 12.9 0.00 0.00 0.00 73 1012.4
20260509181546 21 313 4.8 12.9 0.00 0.00 0.00 73 1012.4
20260509181030 21 209 4.8 11.3 0.00 0.00 0.00 74 1012.5
20260509180534 21 0 0.0 9.7 0.00 0.00 0.00 74 1012.4
20260509180041 20 331 4.8 11.3 0.00 0.00 0.00 74 1012.4
20260509175534 20 331 1.6 11.3 0.00 0.00 0.00 75 1012.3
20260509175031 20 315 4.8 12.9 0.00 0.00 0.00 74 1012.2
20260509174540 20 309 6.4 12.9 0.00 0.00 0.00 76 1012.1
20260509174035 20 199 1.6 14.5 0.00 0.00 0.00 77 1012.1
20260509173536 20 273 4.8 14.5 0.00 0.00 0.00 80 1012.4
20260509173046 19 225 3.2 12.9 0.00 0.00 0.00 80 1012.5
20260509172530 18 273 4.8 11.3 0.00 0.00 0.00 80 1012.7
20260509172031 18 289 3.2 9.7 0.00 0.00 0.00 81 1012.8
20260509171544 18 225 3.2 11.3 0.00 0.00 0.00 82 1012.8
20260509171031 18 212 4.8 12.9 0.00 0.00 0.00 83 1012.6
20260509170530 18 193 4.8 19.3 0.00 0.00 0.00 83 1012.8
20260509170044 18 187 6.4 19.3 0.00 0.00 0.00 84 1012.9
20260509165531 18 225 4.8 14.5 0.00 0.00 0.00 86 1012.9
20260509165031 18 323 4.8 14.5 0.00 0.00 0.00 86 1013.0
20260509164540 18 295 1.6 9.7 0.00 0.00 0.00 88 1012.8
20260509164031 17 311 3.2 9.7 0.00 0.00 0.00 88 1012.9
20260509163532 17 311 1.6 8.0 0.00 0.00 0.00 89 1012.8
20260509163105 17 0 3.2 8.0 0.00 0.00 0.00 90 1012.9
20260509162530 17 0 0.0 6.4 0.00 0.00 0.00 90 1013.1
20260509162034 17 271 1.6 6.4 0.00 0.00 0.00 91 1013.0
20260509161545 17 0 1.6 6.4 0.00 0.00 0.00 91 1012.9
20260509161030 17 258 1.6 6.4 0.00 0.00 0.00 91 1013.0
20260509160531 17 263 0.0 6.4 0.00 0.00 0.00 91 1013.0
20260509160047 17 0 0.0 6.4 0.00 0.00 0.00 91 1013.0
20260509155530 17 0 1.6 9.7 0.00 0.00 0.00 91 1013.1
20260509155032 17 230 1.6 9.7 0.00 0.00 0.00 91 1013.0
20260509154545 17 275 3.2 6.4 0.00 0.00 0.00 91 1013.0
20260509154032 17 236 1.6 8.0 0.00 0.00 0.00 92 1013.1
20260509153529 17 234 1.6 8.0 0.00 0.00 0.00 91 1013.0
20260509153041 17 215 1.6 6.4 0.00 0.00 0.00 91 1012.9
20260509152530 17 236 1.6 6.4 0.00 0.00 0.00 91 1012.9
20260509152033 17 239 3.2 9.7 0.00 0.00 0.00 92 1013.1
20260509151539 16 242 1.6 9.7 0.00 0.00 0.00 91 1013.2
20260509151029 16 217 3.2 9.7 0.00 0.00 0.00 91 1013.3
20260509150531 16 213 3.2 6.4 0.00 0.00 0.00 91 1013.4
20260509150041 16 209 4.8 9.7 0.00 0.00 0.00 91 1013.3
20260509145531 16 196 3.2 9.7 0.00 0.00 0.00 90 1013.3
20260509145031 16 236 3.2 9.7 0.00 0.00 0.00 90 1013.2
20260509144545 17 204 3.2 9.7 0.00 0.00 0.00 90 1013.5
20260509144031 17 217 3.2 9.7 0.00 0.00 0.00 90 1013.3
20260509143530 17 215 4.8 9.7 0.00 0.00 0.00 90 1013.3
20260509143049 17 210 4.8 9.7 0.00 0.00 0.00 89 1013.3
20260509142530 17 219 3.2 8.0 0.00 0.00 0.00 89 1013.2
20260509142032 17 202 3.2 9.7 0.00 0.00 0.00 89 1013.1
20260509141548 17 225 3.2 9.7 0.00 0.00 0.00 88 1013.1
20260509141032 16 236 4.8 12.9 0.00 0.00 0.00 88 1012.8
20260509140530 16 206 4.8 12.9 0.00 0.00 0.00 88 1012.8
20260509140048 16 187 3.2 9.7 0.00 0.00 0.00 88 1012.7
20260509135529 16 245 3.2 11.3 0.00 0.00 0.00 88 1012.7
20260509135034 16 234 4.8 11.3 0.00 0.00 0.00 88 1012.6
20260509134537 16 267 1.6 9.7 0.00 0.00 0.00 88 1012.5
20260509134031 16 0 0.0 6.4 0.00 0.00 0.00 88 1012.4
20260509133532 16 0 3.2 6.4 0.00 0.00 0.00 88 1012.4
20260509133037 16 0 1.6 4.8 0.00 0.00 0.00 88 1012.4
20260509132532 16 130 0.0 4.8 0.00 0.00 0.00 88 1012.3
20260509132030 16 129 0.0 3.2 0.00 0.00 0.00 88 1012.2
20260509131543 16 0 0.0 3.2 0.00 0.00 0.00 88 1012.1
20260509131032 16 0 0.0 3.2 0.00 0.00 0.00 88 1012.1
20260509130529 16 0 0.0 3.2 0.00 0.00 0.00 88 1012.1
20260509130044 16 80 1.6 3.2 0.00 0.00 0.00 88 1012.1
20260509125529 16 0 0.0 4.8 0.00 0.00 0.00 88 1012.1
20260509125030 16 0 0.0 4.8 0.00 0.00 0.00 88 1012.2
20260509124540 16 0 0.0 4.8 0.00 0.00 0.00 88 1012.0
20260509124031 16 0 0.0 4.8 0.00 0.00 0.00 88 1011.9
20260509123531 16 0 1.6 4.8 0.00 0.00 0.00 88 1011.9
20260509123049 16 0 0.0 1.6 0.00 0.00 0.00 88 1011.8
20260509122530 16 0 0.0 1.6 0.00 0.00 0.00 88 1011.8
20260509122032 16 0 0.0 0.0 0.00 0.00 0.00 88 1011.8
20260509121544 16 0 0.0 0.0 0.00 0.00 0.00 88 1011.8
20260509121030 16 0 0.0 0.0 0.00 0.00 0.00 88 1011.8
20260509120531 16 0 0.0 0.0 0.00 0.00 0.00 89 1011.8
20260509120043 15 0 0.0 0.0 0.00 0.00 0.00 88 1011.8
20260509115533 15 0 0.0 1.6 0.00 0.00 0.00 88 1012.0
20260509115032 15 0 0.0 1.6 0.00 0.00 0.00 88 1011.9
20260509114543 15 0 0.0 1.6 0.00 0.00 0.00 88 1012.0
20260509114029 15 0 0.0 3.2 0.00 0.00 0.00 89 1012.0
20260509113529 15 0 0.0 4.8 0.00 0.00 0.00 89 1012.0
20260509113052 15 0 0.0 4.8 0.00 0.00 0.00 89 1012.1
20260509112531 15 178 1.6 4.8 0.00 0.00 0.00 89 1012.1
20260509112028 15 178 0.0 4.8 0.00 0.00 0.00 89 1012.1
20260509111547 15 178 1.6 4.8 0.00 0.00 0.00 89 1012.1
20260509111031 15 0 0.0 4.8 0.00 0.00 0.00 89 1011.9
20260509110529 15 206 0.0 4.8 0.00 0.00 0.00 89 1012.0
20260509110047 15 206 0.0 3.2 0.00 0.00 0.00 89 1012.0
20260509105532 15 0 0.0 3.2 0.00 0.00 0.00 89 1011.9
20260509105030 15 0 0.0 3.2 0.00 0.00 0.00 89 1011.8
20260509104541 15 0 0.0 0.0 0.00 0.00 0.00 89 1011.8
20260509104028 15 0 0.0 8.0 0.00 0.00 0.00 89 1011.6
20260509103528 15 0 1.6 8.0 0.00 0.00 0.00 89 1011.4
20260509103052 15 194 0.0 4.8 0.00 0.00 0.00 89 1011.7
20260509102531 15 0 0.0 3.2 0.00 0.00 0.00 88 1011.6
20260509102032 15 0 0.0 3.2 0.00 0.00 0.00 89 1011.8
20260509101540 15 0 0.0 3.2 0.00 0.00 0.00 89 1011.6
20260509101028 15 0 0.0 3.2 0.00 0.00 0.00 89 1011.8
20260509100532 15 0 0.0 3.2 0.00 0.00 0.00 89 1011.8
20260509100108 15 0 0.0 3.2 0.00 0.00 0.00 89 1011.8
20260509095531 15 0 0.0 0.0 0.00 0.00 0.00 89 1012.1
20260509095030 15 0 0.0 0.0 0.00 0.00 0.00 89 1012.1
20260509094551 15 0 0.0 0.0 0.00 0.00 0.00 88 1012.2
20260509094030 14 0 0.0 0.0 0.00 0.00 0.00 89 1012.3
20260509093532 14 0 0.0 0.0 0.00 0.00 0.00 89 1012.2
20260509093044 14 0 0.0 0.0 0.00 0.00 0.00 88 1012.3
20260509092528 14 0 0.0 0.0 0.00 0.00 0.00 88 1012.0
20260509092031 14 0 0.0 0.0 0.00 0.00 0.00 88 1012.1
20260509091544 14 0 0.0 0.0 0.00 0.00 0.00 88 1012.0
20260509091029 14 0 0.0 0.0 0.00 0.00 0.00 88 1012.1
20260509090529 14 0 0.0 0.0 0.00 0.00 0.00 88 1011.9
20260509090043 14 0 0.0 0.0 0.00 0.00 0.00 88 1011.9
20260509085528 14 0 0.0 0.0 0.00 0.00 0.00 88 1012.1
20260509085031 14 0 0.0 0.0 0.00 0.00 0.00 88 1012.1
20260509084538 14 0 0.0 0.0 0.00 0.00 0.00 88 1012.0
20260509084028 14 0 0.0 0.0 0.00 0.00 0.00 88 1012.0
20260509083531 14 0 0.0 0.0 0.00 0.00 0.00 88 1011.9
20260509083046 14 0 0.0 0.0 0.00 0.00 0.00 88 1011.9
20260509082530 14 0 0.0 0.0 0.00 0.00 0.00 88 1011.9
20260509082029 14 0 0.0 0.0 0.00 0.00 0.00 88 1011.9
20260509081546 14 0 0.0 0.0 0.00 0.00 0.00 88 1012.0
20260509081031 14 0 0.0 0.0 0.00 0.00 0.00 88 1012.0
20260509080534 14 0 0.0 0.0 0.00 0.00 0.00 88 1012.0
20260509080048 14 0 0.0 0.0 0.00 0.00 0.00 88 1012.0
20260509075528 14 0 0.0 0.0 0.00 0.00 0.00 87 1011.8
20260509075028 14 0 0.0 0.0 0.00 0.00 0.00 87 1011.8
20260509074542 14 0 0.0 0.0 0.00 0.00 0.00 87 1011.8
20260509074032 14 0 0.0 0.0 0.00 0.00 0.00 88 1011.9
20260509073528 14 0 0.0 0.0 0.00 0.00 0.00 88 1011.9
20260509073045 14 0 0.0 0.0 0.00 0.00 0.00 88 1011.8
20260509072528 14 0 0.0 0.0 0.00 0.00 0.00 88 1011.9
20260509072031 13 0 0.0 0.0 0.00 0.00 0.00 88 1011.8
20260509071545 13 0 0.0 0.0 0.00 0.00 0.00 88 1011.8
20260509071028 13 0 0.0 0.0 0.00 0.00 0.00 87 1011.8
20260509070528 13 0 0.0 0.0 0.00 0.00 0.00 87 1011.6
20260509070041 13 0 0.0 0.0 0.00 0.00 0.00 87 1011.7
20260509065532 13 0 0.0 0.0 0.00 0.00 0.00 87 1011.7
20260509065030 13 0 0.0 0.0 0.00 0.00 0.00 86 1011.8
20260509064540 13 0 0.0 0.0 0.00 0.00 0.00 86 1012.0
20260509064032 13 0 0.0 0.0 0.00 0.00 0.00 86 1012.0
20260509063530 13 0 0.0 0.0 0.00 0.00 0.00 86 1012.1
20260509063042 13 0 0.0 0.0 0.00 0.00 0.00 86 1012.2
20260509062528 14 0 0.0 0.0 0.00 0.00 0.00 86 1012.3
20260509062028 14 0 0.0 0.0 0.00 0.00 0.00 86 1012.4
20260509061547 14 0 0.0 0.0 0.00 0.00 0.00 86 1012.5
20260509061033 14 0 0.0 0.0 0.00 0.00 0.00 86 1012.8
20260509060532 14 0 0.0 0.0 0.00 0.00 0.00 86 1013.0
20260509060043 14 0 0.0 0.0 0.00 0.00 0.00 86 1013.0
20260509055535 14 0 0.0 0.0 0.00 0.00 0.00 86 1013.1
20260509055030 14 0 0.0 0.0 0.00 0.00 0.00 86 1013.1
20260509054550 13 0 0.0 0.0 0.00 0.00 0.00 86 1013.2
20260509054028 13 0 0.0 0.0 0.00 0.00 0.00 86 1013.2
20260509053531 13 0 0.0 0.0 0.00 0.00 0.00 85 1013.3
20260509053055 13 0 0.0 0.0 0.00 0.00 0.00 85 1013.2
20260509052531 13 0 0.0 0.0 0.00 0.00 0.00 85 1013.2
20260509052028 13 0 0.0 0.0 0.00 0.00 0.00 84 1013.1
20260509051545 13 0 0.0 0.0 0.00 0.00 0.00 84 1013.1
20260509051034 13 0 0.0 0.0 0.00 0.00 0.00 84 1013.1
20260509050530 13 0 0.0 0.0 0.00 0.00 0.00 84 1013.0
20260509050041 13 0 0.0 0.0 0.00 0.00 0.00 84 1013.1
20260509045532 14 0 0.0 0.0 0.00 0.00 0.00 84 1013.1
20260509045032 14 0 0.0 0.0 0.00 0.00 0.00 83 1013.1
20260509044548 14 0 0.0 0.0 0.00 0.00 0.00 83 1013.0
20260509044027 14 0 0.0 0.0 0.00 0.00 0.00 83 1013.1
20260509043527 14 0 0.0 0.0 0.00 0.00 0.00 83 1013.0
20260509043042 14 0 0.0 0.0 0.00 0.00 0.00 83 1013.2
20260509042531 14 0 0.0 0.0 0.00 0.00 0.00 82 1013.3
20260509042031 14 0 0.0 0.0 0.00 0.00 0.00 82 1013.3
20260509041540 14 0 0.0 0.0 0.00 0.00 0.00 81 1013.3
20260509041032 14 0 0.0 0.0 0.00 0.00 0.00 81 1013.3
20260509040532 14 0 0.0 0.0 0.00 0.00 0.00 81 1013.2
20260509040044 15 0 0.0 0.0 0.00 0.00 0.00 80 1013.5
20260509035530 15 0 0.0 0.0 0.00 0.00 0.00 80 1013.6
20260509035031 15 0 0.0 0.0 0.00 0.00 0.00 80 1013.6
20260509034539 15 0 0.0 0.0 0.00 0.00 0.00 79 1013.6
20260509034030 15 0 0.0 0.0 0.00 0.00 0.00 79 1013.5
20260509033531 15 0 0.0 0.0 0.00 0.00 0.00 79 1013.9
20260509033035 15 0 0.0 0.0 0.00 0.00 0.00 78 1013.7
20260509032533 15 0 0.0 0.0 0.00 0.00 0.00 78 1013.8
20260509032031 15 0 0.0 0.0 0.00 0.00 0.00 77 1013.9
20260509031543 15 0 0.0 0.0 0.00 0.00 0.00 77 1013.9
20260509031028 15 0 0.0 0.0 0.00 0.00 0.00 76 1013.9
20260509030531 16 0 0.0 0.0 0.00 0.00 0.00 76 1013.9
20260509030040 16 0 0.0 0.0 0.00 0.00 0.00 75 1014.0
20260509025527 16 0 0.0 0.0 0.00 0.00 0.00 74 1014.2
20260509025028 16 0 0.0 0.0 0.00 0.00 0.00 73 1014.0
20260509024538 16 0 0.0 1.6 0.00 0.00 0.00 73 1014.1
20260509024030 16 0 0.0 1.6 0.00 0.00 0.00 72 1014.0
20260509023530 16 199 0.0 1.6 0.00 0.00 0.00 72 1014.1
20260509023039 17 0 0.0 4.8 0.00 0.00 0.00 72 1014.4
20260509022530 17 0 0.0 4.8 0.00 0.00 0.00 71 1014.1
20260509022030 17 200 0.0 6.4 0.00 0.00 0.00 71 1014.3
20260509021544 17 0 0.0 8.0 0.00 0.00 0.00 71 1014.1
20260509021030 17 207 3.2 8.0 0.00 0.00 0.00 71 1014.3
20260509020533 17 190 1.6 6.4 0.00 0.00 0.00 70 1014.3
20260509020042 17 188 0.0 6.4 0.00 0.00 0.00 70 1014.1
20260509015533 17 0 1.6 4.8 0.00 0.00 0.00 70 1013.9
20260509015033 17 217 1.6 6.4 0.00 0.00 0.00 69 1014.1
20260509014542 17 221 1.6 8.0 0.00 0.00 0.00 69 1014.1
20260509014035 17 218 3.2 9.7 0.00 0.00 0.00 69 1013.9
20260509013530 17 202 3.2 9.7 0.00 0.00 0.00 69 1014.0
20260509013041 17 197 1.6 4.8 0.00 0.00 0.00 69 1013.9
20260509012532 17 197 1.6 4.8 0.00 0.00 0.00 69 1014.0
20260509012030 17 0 0.0 6.4 0.00 0.00 0.00 68 1013.9
20260509011538 17 0 1.6 6.4 0.00 0.00 0.00 68 1013.7
20260509011031 17 203 0.0 6.4 0.00 0.00 0.00 67 1013.7
20260509010530 17 198 0.0 3.2 0.00 0.00 0.00 67 1013.8
20260509010046 18 0 0.0 3.2 0.00 0.00 0.00 67 1013.8
20260509005531 18 0 0.0 3.2 0.00 0.00 0.00 67 1013.8
20260509005030 18 201 0.0 3.2 0.00 0.00 0.00 66 1013.7
20260509004541 18 0 0.0 3.2 0.00 0.00 0.00 66 1013.7
20260509004028 18 0 0.0 4.8 0.00 0.00 0.00 66 1013.8
20260509003532 18 201 0.0 6.4 0.00 0.00 0.00 65 1013.8
20260509003041 18 201 1.6 6.4 0.00 0.00 0.00 65 1013.8
20260509002530 18 200 3.2 6.4 0.00 0.00 0.00 64 1013.9
20260509002031 18 200 3.2 6.4 0.00 0.00 0.00 64 1013.9
20260509001540 18 207 1.6 4.8 0.00 0.00 0.00 64 1013.8
20260509001030 18 0 1.6 4.8 0.00 0.00 0.00 64 1013.8
20260509000530 18 206 1.6 4.8 0.00 0.00 0.00 64 1013.8
20260509000037 18 207 0.0 6.4 0.00 0.00 0.00 63 1013.9
20260508235531 18 207 1.6 6.4 0.00 0.05 0.00 63 1013.9
20260508235032 19 0 1.6 6.4 0.00 0.05 0.00 63 1013.9
20260508234546 19 0 0.0 6.4 0.00 0.05 0.00 62 1013.7
20260508234028 19 207 3.2 6.4 0.00 0.05 0.00 61 1013.8
20260508233534 19 208 1.6 4.8 0.00 0.05 0.00 61 1013.8
20260508233040 19 207 1.6 8.0 0.00 0.05 0.00 61 1013.7
20260508232530 19 207 3.2 8.0 0.00 0.05 0.00 61 1013.6
20260508232027 19 201 0.0 4.8 0.00 0.05 0.00 61 1013.5
20260508231555 19 219 0.0 8.0 0.00 0.05 0.00 61 1013.5
20260508231032 20 219 1.6 8.0 0.00 0.05 0.00 60 1013.5
20260508230528 20 0 3.2 8.0 0.00 0.05 0.00 60 1013.4
20260508230054 20 225 1.6 4.8 0.00 0.05 0.00 60 1013.4
20260508225535 20 136 1.6 4.8 0.00 0.13 0.00 59 1013.3
20260508225029 20 132 0.0 4.8 0.00 0.13 0.00 59 1013.3
20260508224550 20 0 0.0 8.0 0.00 0.13 0.00 59 1013.3
20260508224029 20 0 1.6 8.0 0.00 0.13 0.00 59 1013.3
20260508223528 20 165 1.6 8.0 0.00 0.13 0.00 58 1013.5
20260508223046 20 158 0.0 3.2 0.00 0.13 0.00 57 1013.6
20260508222529 20 0 0.0 3.2 0.00 0.13 0.00 56 1013.5
20260508222027 20 0 0.0 6.4 0.00 0.13 0.00 55 1013.4
20260508221548 20 0 0.0 6.4 0.00 0.13 0.00 56 1013.3
20260508221028 20 0 0.0 8.0 0.00 0.13 0.00 54 1013.6
20260508220533 20 159 1.6 8.0 0.00 0.13 0.00 55 1013.8
20260508220045 20 158 1.6 6.4 0.00 0.13 0.00 55 1013.8
20260508215534 20 0 0.0 4.8 0.00 0.23 0.00 54 1013.6
20260508215032 20 0 0.0 4.8 0.00 0.23 0.00 54 1013.6
20260508214618 20 0 0.0 4.8 0.00 0.23 0.00 55 1013.6
20260508214034 20 0 1.6 4.8 0.00 0.23 0.00 55 1013.5
20260508213530 20 125 0.0 4.8 0.00 0.23 0.00 55 1013.6
20260508213053 21 0 0.0 4.8 0.00 0.23 0.00 54 1013.7
20260508212533 21 0 0.0 4.8 0.00 0.23 0.00 53 1013.5
20260508212036 21 121 0.0 4.8 0.00 0.23 0.00 55 1013.5
20260508211543 21 0 1.6 4.8 0.00 0.23 0.00 52 1013.5
20260508211032 20 121 0.0 6.4 0.00 0.23 0.00 52 1013.6
20260508210530 20 121 1.6 6.4 0.00 0.23 0.00 51 1013.7
20260508210054 21 0 0.0 6.4 0.00 0.23 0.00 51 1013.6
20260508205529 20 0 0.0 6.4 0.00 0.38 0.00 50 1013.7
20260508205034 21 107 1.6 4.8 0.00 0.38 0.00 49 1013.6
20260508204543 21 117 0.0 4.8 0.00 0.38 0.00 50 1013.6
20260508204030 21 119 0.0 6.4 0.00 0.38 0.00 50 1013.8
20260508203532 21 118 1.6 6.4 0.00 0.38 0.00 51 1014.0
20260508203105 21 0 1.6 6.4 0.00 0.38 0.00 48 1013.8
20260508202532 21 0 1.6 9.7 0.00 0.38 0.00 48 1013.9
20260508202030 21 0 3.2 9.7 0.00 0.38 0.00 49 1014.1
20260508201546 21 128 1.6 6.4 0.00 0.38 0.00 49 1014.0
20260508201033 21 132 1.6 4.8 0.00 0.38 0.00 49 1013.8
20260508200533 21 0 1.6 4.8 0.00 0.38 0.00 48 1014.0
20260508200043 21 0 1.6 4.8 0.00 0.38 0.00 48 1013.7
20260508195535 21 131 0.0 3.2 0.00 0.58 0.00 48 1013.9
20260508195029 21 0 0.0 4.8 0.00 0.58 0.00 46 1013.9
20260508194540 21 134 0.0 9.7 0.00 0.58 0.00 47 1014.0
20260508194033 21 117 1.6 9.7 0.00 0.58 0.00 47 1014.2
20260508193535 21 77 4.8 9.7 0.00 0.58 0.00 47 1014.3
20260508193051 21 0 0.0 6.4 0.00 0.58 0.00 47 1014.7
20260508192529 21 78 1.6 9.7 0.00 0.58 0.00 47 1014.6
20260508192030 21 146 3.2 11.3 0.00 0.58 0.00 49 1014.5
20260508191548 21 104 4.8 11.3 0.00 0.58 0.00 48 1014.6
20260508191029 21 0 1.6 11.3 0.00 0.58 0.00 48 1014.5
20260508190529 21 90 1.6 11.3 0.00 0.58 0.00 48 1014.8
20260508190044 21 75 4.8 11.3 0.00 0.58 0.00 48 1014.8
20260508185533 21 94 3.2 11.3 0.00 0.84 0.00 49 1015.0
20260508185036 21 128 4.8 11.3 0.00 0.84 0.00 49 1015.1
20260508184542 21 113 3.2 12.9 0.00 0.84 0.00 48 1015.1